Location: Tumbler Ridge
(55.1167°N, 121.0000°W)
Time: 00:17:51
(UTC-07:00)

Daily predictions for brighter satellites

Satellite Brightness Start Highest point End
(mag) Time Altitude Azimuth Time Altitude Azimuth Time Altitude Azimuth
Cosmos 1606 Rocket 3.5 00:04:13 64° S 00:04:54 88° ESE 00:09:23 10° NNE
ATLAS CENTAUR R/B 1.9 00:02:52 10° NW 00:05:48 40° W 00:05:48 40° W
Cosmos 2360 Rocket 4.0 00:03:07 10° W 00:08:05 30° NW 00:13:03 10° NNE
Meteor 2-5 Rocket 3.8 00:02:46 10° NNW 00:08:41 78° W 00:10:37 45° S
CZ-4B R/B 3.7 00:09:56 15° ENE 00:10:03 15° ENE 00:11:54 10° NNE
COSMOS 2428 3.7 00:04:36 10° WSW 00:10:08 46° NW 00:15:40 10° NNE
Meteor 1-4 Rocket 3.4 00:09:30 41° WSW 00:10:12 46° WNW 00:13:54 10° N
Cosmos 1674 4.3 00:07:35 10° N 00:10:50 24° ENE 00:11:15 24° ENE
Cosmos 1943 Rocket 3.3 00:05:51 10° NNW 00:11:00 38° NE 00:14:29 19° E
CZ-4C R/B 4.0 00:11:41 39° W 00:11:41 39° W 00:14:51 10° NNW
H-2A R/B 4.5 00:12:22 10° WSW 00:14:00 11° W 00:15:37 10° WNW
Cosmos 2154 Rocket 4.4 00:16:39 40° SE 00:18:23 50° E 00:24:20 10° NNE
ATLAS CENTAUR R/B 3.2 00:08:38 10° WNW 00:21:53 61° SW 00:23:29 46° SSE
Cosmos 2327 Rocket 4.4 00:20:40 44° S 00:22:50 81° E 00:29:08 10° NNE
Cosmos 2333 Rocket 2.6 00:18:55 19° SW 00:23:02 61° NW 00:28:41 10° NNE
Cosmos 1707 3.4 00:19:42 10° NNW 00:23:24 43° W 00:23:27 43° W
NOSS 0 Rocket 4.1 00:19:49 22° SW 00:24:00 75° NW 00:30:18 10° NE
RESURS DK-1 2.2 00:24:05 85° S 00:24:12 88° SE 00:28:24 10° NE
Cosmos 1766 4.1 00:25:31 41° E 00:25:31 41° E 00:29:01 10° NNE
Cosmos 2228 2.9 00:26:40 75° SSE 00:27:00 84° E 00:31:27 10° NNE
Cosmos 389 Rocket 2.9 00:28:15 59° NE 00:28:15 59° NE 00:31:23 10° NNE
Cosmos 1953 4.2 00:30:44 20° E 00:30:44 20° E 00:33:27 10° NE
Cosmos 2058 Rocket 2.9 00:31:32 71° SW 00:31:58 82° WNW 00:36:24 10° N
Cosmos 2369 Rocket 2.3 00:29:12 10° NNW 00:34:56 71° NE 00:36:57 41° SE
COSMOS 2455 3.5 00:29:43 10° NW 00:35:16 39° WSW 00:36:20 36° SW
In-Cosmos 22 4.0 00:30:34 10° NNW 00:35:55 88° WSW 00:37:04 57° S
CZ-3A R/B 4.4 00:09:42 10° W 00:36:25 85° SSW 00:42:51 10° ESE
Iridium 4 Rocket 3.7 00:36:42 41° E 00:36:57 42° E 00:41:00 10° NNE
Cosmos 1689 Rocket 4.1 00:38:30 24° NE 00:38:30 24° NE 00:40:48 10° N
Cosmos 2237 Rocket 2.5 00:35:59 27° SW 00:39:06 64° NW 00:44:44 10° NNE
NOSS 2-2 (C) 4.0 00:40:30 49° ESE 00:40:30 49° ESE 00:44:53 10° NE
Cosmos 2084 Rocket 4.2 00:42:15 37° ENE 00:42:15 37° ENE 00:44:50 10° ENE
Cosmos 1340 Rocket 3.9 00:37:47 10° NNW 00:41:18 34° W 00:41:18 34° W
Cosmos 1937 Rocket 3.9 00:37:45 10° NNW 00:43:01 58° ENE 00:44:49 38° ESE
Cosmos 1076 Rocket 4.3 00:41:11 10° N 00:45:19 41° ENE 00:45:55 38° E
Lacrosse 5 2.1 00:40:15 10° W 00:45:20 71° N 00:50:26 10° E
Cosmos 1980 4.2 00:42:07 22° WSW 00:45:46 57° NW 00:51:23 10° NNE
Cosmos 1898 Rocket 3.5 00:44:26 10° NNW 00:49:46 80° ENE 00:51:00 54° SE
CZ-4C R/B 3.4 00:50:52 61° NE 00:50:52 61° NE 00:54:21 10° N
ERBS 4.2 00:49:47 10° WNW 00:51:17 24° WNW 00:51:17 24° WNW
CZ-4B R/B 4.3 00:52:41 10° N 00:57:10 42° WNW 00:58:53 30° WSW
Cosmos 1544 3.5 00:59:03 59° NE 00:59:03 59° NE 01:02:14 10° NNE
ATLAS 2AS CENTAUR R/B 4.0 00:53:32 10° W 01:01:21 48° N 01:09:09 10° ENE
Cosmos 990 Rocket 4.1 00:56:17 10° NNW 01:01:33 69° ENE 01:03:03 46° SE
CENTAUR R/B 4.0 00:56:27 10° WNW 01:02:56 29° WSW 01:04:49 27° SW
Cosmos 1570 Rocket 4.2 01:02:44 51° SE 01:03:17 53° ESE 01:08:24 10° NE
GEOS 3 Rocket 3.6 01:02:13 37° ESE 01:04:23 81° NE 01:09:44 10° NW
NOSS 2-2 (E) 3.5 01:04:02 73° SSW 01:04:25 81° SE 01:09:45 10° NE
Cosmos 2184 Rocket 4.4 01:01:55 34° SW 01:04:26 55° WNW 01:10:34 10° N
USA 229 DEB 4.1 00:57:54 10° NW 01:04:57 67° NNE 01:12:11 10° ESE
USA 229 4.1 00:58:01 10° NW 01:05:03 67° NNE 01:12:16 10° ESE
Cosmos 2074 Rocket 4.5 01:03:00 32° SW 01:05:40 53° WNW 01:11:48 10° N
Cosmos 1271 Rocket 3.7 01:05:39 36° WNW 01:05:53 36° WNW 01:09:25 10° N
ALOS 2 3.5 01:06:12 35° W 01:06:20 35° W 01:10:23 10° NNW
SL-24 R/B 4.1 01:06:21 67° ESE 01:06:47 74° ENE 01:11:15 10° NNW
Cosmos 2344 4.4 00:57:09 10° NW 01:06:50 89° SW 01:20:14 10° SE
Nadezhda 3 Rocket 4.3 01:02:19 10° NNW 01:08:31 56° W 01:10:26 41° SW
Landsat 5 3.6 01:08:29 62° ESE 01:08:52 67° ENE 01:13:13 10° N
NOSS 3-4 (A) 3.9 01:03:59 10° WSW 01:10:19 64° NNW 01:17:02 10° NE
NOSS 3-4 (C) 3.9 01:04:05 10° WSW 01:10:25 64° NNW 01:17:09 10° NE
SL-16 R/B 4.4 01:06:57 10° E 01:11:46 24° NE 01:16:35 10° N
Cosmos 2150 Rocket 3.9 01:13:30 10° NNW 01:18:42 90° WSW 01:19:45 59° SSE
Spot 2 4.1 01:16:09 10° NNE 01:20:29 70° ESE 01:20:46 67° SE
Meteor 2-15 Rocket 4.4 01:15:21 10° N 01:21:32 82° ENE 01:23:30 46° SSE
SL-14 R/B 4.0 01:18:20 10° N 01:22:17 45° ENE 01:22:43 43° E
USA 215 3.3 01:20:59 43° S 01:22:41 54° SW 01:29:05 10° WNW
Cosmos 2341 Rocket 3.9 01:21:02 48° SSW 01:22:59 87° W 01:29:17 10° N
CZ-2C R/B 3.3 01:20:16 10° N 01:25:25 48° WNW 01:27:28 33° WSW
Cosmos 2263 4.1 01:21:45 10° NW 01:27:22 74° WSW 01:28:35 55° S
Cosmos 332 Rocket 4.3 01:27:34 45° ESE 01:27:58 46° ESE 01:32:40 10° NE
Cosmos 1812 Rocket 3.5 01:28:02 68° WSW 01:28:18 71° WNW 01:32:43 10° N
Cosmos 1295 Rocket 4.4 01:27:08 48° S 01:29:03 89° W 01:35:19 10° NNE
Okean 3 Rocket 3.6 01:24:49 10° NNW 01:29:22 70° W 01:29:38 68° SW
Cosmos 2298 Rocket 4.0 01:25:08 10° NNW 01:30:27 70° WSW 01:31:19 58° SSW
Cosmos 1470 3.3 01:33:40 49° E 01:33:40 49° E 01:37:17 10° NNE
Mayak -1.1 01:30:35 10° N 01:34:41 61° WNW 01:34:58 59° W
Cosmos 2219 Rocket 4.1 01:32:12 10° W 01:36:55 26° NNW 01:41:39 10° NNE
NOSS 3-1 (C) 4.3 01:30:47 10° NW 01:37:43 63° NNE 01:45:39 10° ESE
Cosmos 1603 3.6 01:38:17 54° S 01:39:34 76° ESE 01:45:12 10° NE
SAR-Lupe-2 3.9 01:41:56 61° NW 01:41:56 61° NW 01:45:03 10° NNW
Cosmos 1727 Rocket 3.9 01:35:59 10° N 01:42:14 89° E 01:44:20 45° S
CZ-4B R/B 2.7 01:43:29 33° NW 01:43:29 33° NW 01:45:29 10° NNW
Cosmos 2366 rocket 4.1 01:41:19 43° SSE 01:43:27 71° E 01:49:47 10° NNE
JB-3 4.3 01:41:46 10° NNE 01:45:28 67° E 01:45:28 67° E
Cosmos 1674 3.6 01:42:56 10° NNW 01:46:08 39° WNW 01:46:08 39° WNW
Cosmos 1766 Rocket 3.4 01:42:59 10° NNW 01:47:25 84° W 01:47:43 76° SSW
SL-16 R/B 2.9 01:45:19 26° WSW 01:48:14 49° NW 01:53:45 10° NNE
Cosmos 371 Rocket 3.5 01:48:43 52° SE 01:49:18 56° ESE 01:54:06 10° NNE
Cosmos 1805 3.8 01:51:24 46° WNW 01:51:28 46° WNW 01:55:18 10° N
Cosmos 1328 3.8 01:48:16 10° N 01:52:17 73° ENE 01:52:28 71° ESE
Cosmos 1408 Rocket 3.3 01:48:11 10° NNW 01:52:35 82° W 01:52:54 75° SSW
Cosmos 1743 Rocket 4.0 01:49:28 10° N 01:53:54 58° ENE 01:54:54 46° SE
Cosmos 1943 Rocket 2.2 01:49:37 10° NW 01:55:03 59° WSW 01:55:58 52° SSW
Cosmos 1656 Rocket 3.7 01:50:49 10° NNW 01:56:33 79° NE 01:59:30 30° SE
Meteor 1-11 4.3 01:53:06 10° NNW 01:58:45 72° ENE 02:01:03 37° SSE
Cosmos 372 Rocket 4.3 01:57:59 10° NNW 02:03:09 65° ENE 02:05:54 28° SE
CZ-2D R/B 4.4 02:00:11 10° NE 02:03:29 16° E 02:06:45 10° ESE
Cosmos 1953 2.7 02:06:28 51° W 02:06:37 51° WNW 02:10:32 10° N
Meteor 2-14 Rocket 4.4 02:05:14 44° SSW 02:07:20 85° WNW 02:13:33 10° NNE
Cosmos 2208 Rocket 4.3 02:06:04 41° WSW 02:07:51 65° WNW 02:13:18 10° NNE
Cosmos 2333 Rocket 4.3 02:04:00 10° WNW 02:08:27 23° NNW 02:12:55 10° NNE
Cosmos 1689 Rocket 4.2 02:11:17 22° WNW 02:11:17 22° WNW 02:12:50 10° NW
NOSS 2-2 (D) 4.4 02:08:04 29° W 02:10:12 55° NNW 02:15:38 10° NE
Cosmos 1959 Rocket 4.5 02:12:59 42° SW 02:15:06 70° WNW 02:21:15 10° N
H-2A R/B 2.3 02:11:40 10° NNE 02:15:32 69° ESE 02:15:47 66° SE
Iridium 4 Rocket 4.4 02:16:30 26° W 02:17:06 27° WNW 02:20:47 10° NNW
Cosmos 1763 Rocket 3.6 02:16:06 47° SSE 02:17:17 61° ESE 02:22:19 10° NNE
Cosmos 2369 Rocket 3.2 02:13:45 10° NW 02:18:32 28° WSW 02:18:43 28° WSW
Cosmos 2084 Rocket 4.4 02:18:47 25° WNW 02:20:36 41° NNW 02:24:19 10° NE
Cosmos 1626 2.1 02:17:52 10° N 02:21:37 73° ENE 02:21:56 68° ESE
Cosmos 1758 4.4 02:22:32 32° W 02:23:04 33° WNW 02:26:50 10° N
PSLV R/B 3.6 02:19:16 10° NNE 02:23:56 86° ESE 02:24:53 56° S
Cosmos 2237 Rocket 4.2 02:19:47 10° W 02:24:16 23° NNW 02:28:45 10° NNE
Cosmos 2058 2.9 02:20:08 10° N 02:24:17 74° ENE 02:25:07 54° SE
Cosmos 1937 Rocket 4.5 02:20:08 10° NW 02:24:44 31° WSW 02:24:57 31° WSW
Lacrosse 5 1.8 02:23:26 10° WNW 02:28:33 89° S 02:33:38 10° ESE
PSLV R/B 3.8 02:27:55 60° SSE 02:28:38 89° W 02:32:45 10° NNW
Cosmos-2242 3.0 02:30:47 58° SW 02:31:33 74° WNW 02:35:59 10° N
Cosmos 2123 Rocket 4.3 02:25:32 10° N 02:31:49 65° ENE 02:36:07 21° SSE
SL-8 Rocket 4.5 02:29:33 32° SW 02:32:03 49° WNW 02:38:04 10° N
SL-08 R/B 3.4 02:30:35 35° SSE 02:32:36 76° ENE 02:37:26 10° NNW
Cosmos 1500 Rocket 3.5 02:32:50 10° NNW 02:37:16 76° W 02:38:12 54° SSW
Cosmos 1943 3.2 02:35:49 40° SW 02:37:58 81° NW 02:43:43 10° NNE
Cosmos 1821 Rocket 4.2 02:36:24 30° SSE 02:39:35 65° E 02:45:42 10° NNE
NOSS 8 (F) 4.4 02:39:31 74° SW 02:39:51 90° ESE 02:43:54 10° NE
Cosmos 1733 4.2 02:41:06 33° W 02:41:26 33° WNW 02:44:57 10° N
Cosmos 1125 Rocket 3.5 02:36:53 10° NNW 02:42:04 64° WSW 02:43:47 41° S
COBE Rocket 4.1 02:37:46 10° NNE 02:42:51 67° E 02:44:45 37° S
GEOS 3 Rocket 4.5 02:43:19 30° WSW 02:43:19 30° WSW 02:47:32 10° WNW
Cosmos 468 Rocket 4.2 02:41:13 37° WSW 02:43:04 59° WNW 02:48:14 10° NNE
Cosmos 1315 Rocket 4.2 02:42:32 10° N 02:46:20 37° ENE 02:49:25 14° SE
Cosmos 2098 Rocket 3.9 02:44:23 29° SSE 02:46:51 53° E 02:51:06 10° NNE
Cosmos 1934 Rocket 4.3 02:45:09 26° SSE 02:48:35 59° E 02:54:34 10° NNE
ATLAS 2AS CENTAUR R/B 3.9 02:45:56 10° WNW 02:53:55 52° NNE 03:01:37 10° E
SL-16 R/B 2.5 02:49:48 18° SSE 02:54:41 84° ENE 03:00:55 10° NNW
USA 229 DEB 3.9 02:49:03 10° NW 02:55:53 51° SW 03:01:19 17° SSE
USA 229 3.9 02:49:10 10° NW 02:56:00 51° SW 03:01:32 17° SSE
Cosmos 2221 3.2 02:57:37 28° SSE 02:59:31 48° E 03:03:42 10° NNE
Cosmos 1242 Rocket 2.4 03:00:15 64° SSW 03:00:46 89° ESE 03:04:19 10° NNE
NOSS 3-1 (A) 3.9 02:53:44 10° NW 03:00:59 87° SW 03:09:12 10° SE
Cosmos 2369 4.4 02:58:55 10° NNW 03:04:31 56° NE 03:10:05 10° SE
Cosmos 1666 Rocket 4.3 03:00:10 10° N 03:04:32 53° ENE 03:08:08 15° SSE
Cosmos 1805 Rocket 3.6 03:01:34 10° N 03:06:03 77° ENE 03:08:31 26° SSE
Meteor 1-16 Rocket 4.4 03:05:16 33° SW 03:07:56 63° WNW 03:13:41 10° N
Cosmos 841 Rocket 3.5 03:06:07 36° SW 03:08:18 75° WNW 03:13:30 10° NNE
Cosmos 1814 Rocket 4.4 03:05:58 31° WSW 03:08:18 54° NW 03:13:27 10° NNE
Cosmos 1605 Rocket 4.5 03:04:14 19° SSE 03:08:48 60° E 03:15:06 10° NNE
Mayak 1.2 03:08:04 10° NNW 03:09:33 12° NW 03:11:03 10° WNW
Cosmos 1470 4.4 03:09:04 20° W 03:09:53 21° WNW 03:12:56 10° NNW
Cosmos 2151 3.5 03:06:19 10° NNW 03:10:17 40° W 03:10:54 37° WSW
NPP 3.7 03:04:54 10° NNE 03:10:20 79° ESE 03:13:11 29° S
ADEOS Rocket 2.7 03:04:57 10° NNE 03:10:30 88° ESE 03:13:23 30° SSW
Cosmos 1400 Rocket 2.7 03:11:43 10° NNW 03:15:39 69° WSW 03:16:55 40° S
Cosmos 1703 3.9 03:12:19 10° NNW 03:15:59 37° W 03:16:22 36° WSW
USA 32 4.3 03:16:10 10° NNW 03:21:14 50° W 03:23:29 30° SSW
Resurs 1-4 Rocket 2.5 03:17:53 10° NNE 03:23:05 58° E 03:26:43 20° S
ARIANE 5 R/B 3.2 03:18:17 10° NNE 03:23:24 50° E 03:27:17 17° S
Cosmos 1842 Rocket 3.9 03:25:16 33° SW 03:26:49 50° WNW 03:31:05 10° N
Helios 1A Rocket 3.1 03:24:05 10° N 03:28:08 60° WNW 03:29:42 34° SW
NOSS 3-1 (C) 4.0 03:21:44 10° NW 03:28:52 60° SW 03:36:53 10° SSE
IRS-P3 4.2 03:27:25 10° NNE 03:32:46 72° WNW 03:35:48 26° SSW
MOS 1 Rocket 3.7 03:28:52 10° NNE 03:33:08 54° E 03:36:14 19° S
SL-27 R/B 3.8 03:31:28 20° SSE 03:33:10 31° ESE 03:36:18 10° NE
Sich 1 3.0 03:28:57 10° NNW 03:33:24 87° WSW 03:36:31 19° S
SL-16 R/B 4.3 03:29:34 10° WNW 03:33:44 20° NNW 03:37:55 10° NNE
Cosmos 1943 Rocket 4.1 03:35:37 10° WNW 03:37:26 12° W 03:37:26 12° W
Cosmos 1908 3.1 03:38:09 33° SSW 03:39:46 75° WNW 03:43:39 10° N
Cosmos 1447 Rocket 4.4 03:33:41 10° NNW 03:39:52 79° W 03:45:53 11° S
AQUA 3.8 03:35:58 10° NNE 03:40:45 71° WNW 03:43:25 26° SSW
USA 161 3.8 03:39:51 10° ESE 03:41:02 14° ENE 03:42:11 10° NNE
Cosmos 1300 3.8 03:38:55 15° SSE 03:41:49 42° E 03:45:28 10° NNE
COSMOS 2406 3.4 03:38:27 23° SSW 03:42:05 69° ESE 03:47:47 10° NE
Cosmos 1980 Rocket 3.5 03:37:39 10° NNW 03:43:02 43° NE 03:48:22 10° ESE
Cosmos 292 Rocket 4.3 03:40:14 20° S 03:43:24 55° ESE 03:48:08 10° NE
CZ-2D R/B 2.2 03:39:03 10° NNE 03:44:29 80° ESE 03:48:24 19° SSW
UNK 4.1 03:43:48 26° SSW 03:45:57 43° W 03:50:20 10° NNW
H-2A R/B 4.3 03:48:05 10° NNW 03:50:42 18° WNW 03:52:24 14° W
Cosmos 2278 3.6 03:47:34 10° NW 03:53:15 81° WSW 03:58:54 10° SSE
Cosmos 540 Rocket 3.6 03:50:50 24° SW 03:53:56 63° WNW 03:59:02 10° NNE
IRS-1D 3.5 03:49:01 10° NNE 03:54:12 90° W 03:58:09 18° SSW
Cosmos 304 Rocket 4.4 03:51:53 22° WSW 03:54:39 43° NW 03:59:16 10° NNE
Cosmos 1626 4.2 03:54:35 10° NW 03:56:27 13° W 03:56:33 13° W
Cosmos 1470 Rocket 3.7 03:52:56 10° N 03:57:17 75° ENE 04:01:37 10° SSE
Cosmos 1697 Rocket 3.0 03:51:59 10° NNW 03:57:41 72° NE 04:03:21 10° SE
Cosmos 2285 Rocket 4.1 03:56:37 18° SSW 04:01:34 84° ESE 04:08:03 10° NNE
CBERS-1 4.5 03:57:23 10° N 04:02:19 48° WNW 04:05:38 20° SW
Spot 4 Rocket 4.0 03:58:24 10° NNE 04:03:35 77° WNW 04:07:34 17° SSW
MOZ.5/SAFIR/RUBIN 5/SL-8 3.9 04:01:42 12° S 04:05:57 56° W 04:10:37 10° NNW
Cosmos 1633 Rocket 3.2 04:02:13 10° NNW 04:06:30 53° W 04:10:00 15° SSW
ADEOS II 3.7 04:03:05 10° NNE 04:07:47 31° E 04:12:26 10° SSE
Cosmos 2173 Rocket 4.4 04:03:30 10° S 04:09:45 67° E 04:16:07 10° NNE
Lacrosse 5 2.4 04:06:34 10° WNW 04:11:13 36° SW 04:15:49 10° SSE
Cosmos 1515 Rocket 4.4 04:08:45 10° S 04:13:01 51° E 04:17:21 10° NNE
Cosmos 1726 2.1 04:11:08 19° SSW 04:13:39 68° WNW 04:17:24 10° N
ADEOS 3.6 04:11:06 10° NNE 04:16:21 81° WNW 04:21:00 13° SSW
Cosmos 2228 Rocket 3.3 04:17:42 10° S 04:22:08 72° E 04:26:34 10° NNE
Cosmos 1315 Rocket 3.8 04:19:20 10° NNW 04:22:50 28° W 04:25:06 17° SW
Cosmos 2082 Rocket 3.7 04:19:54 10° S 04:24:50 33° ESE 04:29:50 10° NE
Gblst 52 Del rocket 4.3 04:20:14 11° W 04:25:51 62° S 04:31:18 10° E
Cosmos 1459 Rocket 4.0 04:22:37 10° S 04:28:43 87° E 04:34:49 10° NNE
Cosmos 1892 2.6 04:30:13 10° NNW 04:34:04 74° W 04:37:54 10° S
Cosmos 1328 Rocket 3.5 04:31:24 10° SSW 04:35:45 78° WNW 04:40:09 10° N
Cosmos 1408 4.1 04:33:24 10° N 04:36:51 39° ENE 04:40:16 10° SE
Cosmos 2360 4.5 04:31:22 10° NNW 04:37:06 76° NE 04:42:49 10° SE
Cosmos 2221 3.8 04:34:29 14° WSW 04:37:21 26° WNW 04:41:00 10° N
SL-16 R/B 3.7 04:34:55 13° SW 04:39:03 24° W 04:43:58 10° NW
Cosmos 1656 3.9 04:35:06 10° NW 04:40:36 51° WSW 04:46:06 10° S
Cosmos 1825 3.6 04:37:38 10° N 04:41:18 42° ENE 04:44:57 10° SE
Meteor 2-3 Rocket 3.7 04:37:03 10° NNW 04:42:40 68° W 04:48:18 10° S
UNKNOWN OBJECT B 3.0 04:38:40 10° N 04:42:41 59° WNW 04:46:42 10° SSW
Landsat 4 4.5 04:39:55 10° SSE 04:43:35 56° ENE 04:47:20 10° N
ATLAS 2AS CENTAUR R/B 3.1 04:37:31 10° NW 04:45:43 87° SW 04:53:26 10° SE
Cosmos 1371 Rocket 4.1 04:41:20 10° NNW 04:46:36 88° ENE 04:51:53 10° SSE
Cosmos 2369 4.2 04:43:24 10° NW 04:48:33 37° WSW 04:53:40 10° S
Meteor 2-10 4.3 04:45:17 10° SSW 04:50:56 66° WNW 04:56:29 10° N
Cosmos 1933 Rocket 4.0 04:46:52 10° NNW 04:51:07 42° W 04:55:18 10° SSW
Cosmos 1538 Rocket 4.1 04:47:46 10° SW 04:53:08 73° WNW 04:58:31 10° NNE
Cosmos 2322 Rocket 3.3 04:48:04 10° NNW 04:53:37 51° NE 04:59:06 10° ESE
ADEOS Rocket 4.3 04:51:19 10° N 04:55:28 22° NW 04:59:36 10° W
Cosmos 1151 Rocket 3.0 04:56:35 10° SSW 05:00:52 74° WNW 05:05:10 10° N
CZ-2D R/B 3.8 04:57:08 10° N 05:01:00 45° WNW 05:04:48 10° SW
Cosmos 923 Rocket 4.3 04:56:38 10° SSW 05:01:51 73° ESE 05:07:08 10° NNE
Cosmos 1624 Rocket 4.0 04:56:54 10° NNW 05:02:14 85° WSW 05:07:28 10° SSE
ARIANE 5 R/B 3.4 04:57:39 10° N 05:02:23 35° WNW 05:07:06 10° SW
Resurs 1-4 Rocket 3.1 04:58:07 10° N 05:02:43 31° WNW 05:07:18 10° WSW
SL-16 R/B 3.0 05:00:33 10° NNW 05:06:11 59° NE 05:11:48 10° SE
Cosmos 2061 Rocket 4.2 05:00:52 10° SSW 05:07:14 63° WNW 05:13:37 10° N
SL-27 R/B 3.6 05:05:21 10° WSW 05:08:25 29° NW 05:11:32 10° N
USA 161 2.5 05:09:35 10° SW 05:10:41 14° W 05:11:46 10° WNW
MOS 1 Rocket 4.4 05:07:40 10° N 05:11:11 25° WNW 05:14:46 10° WSW
CZ-4B R/B 3.4 05:07:59 10° NNE 05:12:27 75° ESE 05:16:59 10° S
Cosmos 2016 Rocket 4.0 05:06:43 10° SSW 05:12:48 68° WNW 05:18:54 10° N
Okean O Rocket 2.1 05:10:44 10° NNE 05:15:11 66° ESE 05:19:34 10° S
Cosmos 1833 Rocket 3.1 05:11:18 10° SSW 05:16:54 68° ESE 05:22:33 10° NE
Meteor 1-27 4.3 05:11:41 10° SSW 05:17:19 72° WNW 05:22:55 10° NNE
